Location: Autingues
(50.8400°N, 1.9737°E)
Time: 10:37:22
(UTC+00:00)

Cosmos 1428 Rocket - Pass Details

Date: 15 May 2026
Orbit: 946 x 987 km, 82.9° (Epoch: 6 June)

Event Time Altitude Azimuth Distance (km) Brightness Sun altitude
Rises 21:28:43 0° 350° (N) 3,684 8.8 -13.7°
Reaches altitude 10° 21:31:16 10° 351° (N) 2,726 7.9 -13.9°
Maximum altitude 21:37:31 82° 80° (E) 980 4.5 -14.4°
Enters shadow 21:42:01 20° 167° (SSE) 2,070 5.6 -14.8°
